Wind_Speed
10 9 9 9 10 9 8 10 12 13 13 12 13 15 15 14 15 14 14 13 13 13 12 12 12 14 14 16 17 18 17 17 18 17 16 16 14 14 15 20 15 11 12
14 10 9 9 9 10 10 11 13 14 15 16 17 17 17 16 17 15 15 15 14 14 14 14 13 13 16 16 16 16 16 17 18 19 18 17 16 15 14 15 14 13 12
13 10 10 10 10 10 11 13 14 14 14 18 18 18 17 17 16 15 15 15 15 15 16 17 16 15 15 15 16 15 16 16 20 22 20 14 13 14 14 15 15 14 12
13 11 8 11 11 12 12 13 12 15 18 18 17 17 17 17 16 15 15 16 15 16 17 17 18 17 16 16 15 15 15 17 20 19 14 13 12 15 15 14 14 14 13
14 11 10 12 11 11 12 12 15 17 17 16 16 15 15 15 15 16 16 15 16 15 16 17 17 16 16 15 16 15 16 16 22 16 15 13 11 13 14 14 13 12 11
13 11 12 13 11 11 11 12 15 15 15 14 14 14 13 13 14 15 16 16 17 17 17 16 16 15 15 16 15 16 16 19 15 14 15 13 11 12 12 10 10 10 9
13 9 9 12 11 11 12 14 14 14 14 13 13 14 14 13 13 13 15 15 15 16 16 16 16 15 15 14 15 14 15 20 13 13 13 11 11 11 11 10 10 10 10
12 10 9 11 11 12 12 12 14 14 14 14 13 13 13 13 13 12 14 14 16 20 18 18 18 16 15 14 14 14 13 17 13 12 12 9 10 10 12 12 12 13 13
11 11 9 8 10 12 13 13 14 12 11 12 10 12 12 12 11 13 15 15 16 17 17 17 16 16 16 15 13 13 13 15 10 10 10 8 12 13 13 14 14 14 13
10 11 9 11 9 10 11 15 14 13 9 11 11 12 12 10 12 13 13 15 16 15 15 15 16 16 15 15 14 13 15 17 9 10 9 11 14 14 15 14 14 14 13
11 10 13 10 10 14 15 15 16 14 11 10 10 13 15 10 11 10 14 15 14 13 13 13 13 14 16 14 13 15 16 8 9 9 7 14 15 15 15 15 14 13 13
12 10 11 12 12 12 12 16 14 12 12 10 11 11 11 11 12 10 13 14 13 12 11 11 11 13 13 6 7 14 8 9 9 10 10 15 16 15 15 14 13 13 12
12 12 11 13 13 11 14 12 14 13 10 9 11 11 12 11 11 10 10 8 8 10 6 7 6 6 5 6 6 6 7 9 9 9 12 15 15 15 14 13 12 11 10
12 13 11 13 15 15 11 11 15 11 9 10 10 13 13 11 11 10 9 8 8 7 5 6 4 5 5 5 6 8 8 9 9 10 13 15 14 13 12 11 10 9 10
12 12 12 11 15 15 15 11 11 11 10 11 10 14 12 10 8 8 8 7 7 6 5 6 6 6 7 6 7 9 9 10 10 10 9 12 11 10 9 7 7 7 9
13 13 13 13 14 15 15 12 11 11 11 11 11 12 11 8 7 6 6 6 6 6 5 5 5 5 8 7 10 9 10 9 11 11 8 7 8 7 5 4 3 4 6
13 14 14 15 13 13 14 11 11 11 11 10 10 14 10 7 7 8 5 7 5 4 4 3 4 6 7 8 10 10 9 10 9 11 7 6 3 3 4 7 8 8 7
14 15 14 14 14 14 12 13 12 13 11 11 10 9 8 7 10 8 7 6 5 3 2 2 5 6 7 8 9 9 8 8 8 8 6 5 2 2 7 10 9 10 10
14 15 15 14 15 15 14 12 13 14 11 11 10 8 8 9 9 8 8 6 6 4 3 5 7 7 7 8 7 7 7 6 5 3 3 2 1 2 4 10 11 10 7
15 15 14 14 16 14 16 17 12 11 11 11 9 8 10 8 8 8 6 7 6 5 4 6 8 7 8 8 7 6 5 4 3 3 1 0 2 4 7 10 11 11 7
16 16 14 14 15 13 14 15 14 13 13 10 9 9 10 7 6 10 5 6 4 4 6 6 6 5 5 5 6 5 3 3 3 3 2 2 5 5 6 6 9 12 5
17 17 15 14 15 15 13 14 14 14 12 10 9 9 9 7 7 10 9 6 6 3 4 5 7 4 3 5 4 5 6 4 4 4 3 4 6 5 4 6 7 6 5
18 18 17 17 17 17 15 14 14 16 16 13 10 9 9 10 6 10 10 7 7 5 3 4 3 5 2 2 5 2 3 5 3 4 5 3 4 4 5 7 6 5 5
18 18 18 17 18 20 19 15 15 14 13 12 10 10 9 11 9 10 9 8 9 5 6 3 1 2 3 2 1 2 4 2 5 3 2 3 3 5 8 6 5 4 5
19 19 19 18 19 19 21 17 18 15 13 10 11 11 11 12 12 9 9 8 10 7 7 8 5 4 2 3 3 3 3 3 4 4 7 2 7 5 5 4 3 4 7
20 20 19 21 22 20 21 17 17 15 13 12 11 10 9 10 11 12 10 9 9 11 9 5 6 6 4 3 1 4 4 4 4 5 7 6 6 5 3 2 3 5 7
Wind_Direction
142 137 123 126 127 121 114 103 103 106 102 100 105 105 108 107 102 104 102 97 93 94 94 92 92 94 101 98 92 97 98 98 97 95 95 95 98 97 98 94 69 96 105
139 133 124 125 117 110 101 99 100 99 98 100 103 99 103 101 99 100 99 97 96 92 92 94 97 100 98 102 103 102 98 99 97 91 84 86 87 90 99 113 127 94 97
133 128 120 123 119 112 105 100 102 100 106 104 106 102 103 101 100 98 99 98 96 96 92 92 94 99 97 98 100 103 98 99 92 83 81 83 84 84 89 91 88 90 95
127 123 122 119 114 109 106 103 102 99 112 107 107 104 99 99 97 95 98 102 98 96 92 88 87 90 96 97 98 99 101 100 97 83 91 86 85 87 85 86 89 88 81
128 129 137 118 110 106 104 105 106 101 108 108 102 99 96 95 94 97 100 103 101 99 97 95 100 98 96 99 98 99 99 98 85 86 94 94 89 89 87 86 81 92 99
122 131 122 117 114 109 109 112 111 111 106 104 102 101 100 101 101 101 103 103 101 99 99 101 101 97 96 98 100 98 100 96 82 89 86 100 103 88 93 95 91 87 84
126 128 124 120 116 107 110 114 109 109 107 107 106 105 104 104 108 108 104 106 101 98 99 95 96 96 99 101 101 101 102 100 96 94 96 119 94 78 81 80 76 73 70
131 133 127 125 126 119 117 113 109 110 114 110 108 105 106 105 104 113 116 113 100 106 105 98 95 94 96 100 100 100 100 99 99 98 91 90 88 74 79 80 77 75 71
137 138 130 127 128 126 118 119 114 114 107 108 114 110 108 106 107 114 120 111 107 105 99 96 91 87 86 89 92 94 95 100 95 101 81 80 91 85 83 79 76 74 70
137 146 144 129 134 119 125 124 118 115 120 113 114 111 107 102 102 106 116 117 116 105 99 95 88 82 81 82 85 90 88 76 93 83 92 99 92 87 83 83 80 75 70
145 147 148 148 144 143 131 124 122 126 117 121 118 113 87 107 97 107 138 125 121 110 102 96 85 76 75 72 78 84 75 100 89 98 98 95 92 92 90 84 79 73 67
153 154 135 156 144 138 132 127 135 131 124 121 120 113 113 119 135 123 127 125 120 107 98 88 76 73 70 67 59 59 90 100 102 96 102 97 98 96 92 89 83 77 67
154 157 159 155 144 164 145 140 133 133 127 120 122 121 125 112 105 111 111 110 108 104 93 73 52 66 93 103 100 109 110 96 99 103 104 102 102 102 100 93 85 73 58
161 153 157 161 158 155 142 142 129 133 132 129 140 125 122 119 119 120 125 126 113 114 100 91 82 80 81 106 114 109 107 105 109 107 106 109 112 106 97 87 75 62 47
164 159 163 168 163 164 158 141 147 145 139 148 133 138 133 133 130 120 124 126 129 106 107 88 83 85 75 92 112 109 113 116 112 112 115 117 109 99 93 89 73 55 37
166 166 169 167 165 163 162 157 159 146 153 141 144 149 135 136 129 130 120 123 118 112 103 93 94 92 99 92 106 117 114 113 120 111 121 113 109 105 91 74 44 28 20
166 166 170 166 167 166 166 164 159 161 155 154 157 152 142 127 145 137 136 127 124 119 101 77 98 99 109 112 115 115 116 111 114 122 113 117 109 76 21 352 338 348 2
164 164 164 166 172 167 168 164 161 163 162 162 160 157 150 141 139 125 131 140 136 116 103 151 145 133 125 131 129 124 124 120 120 123 117 121 105 8 343 353 357 356 357
171 166 163 165 164 165 169 167 166 174 164 167 166 166 167 153 147 136 133 130 119 99 104 126 146 142 141 140 138 139 135 137 125 136 130 125 339 344 330 326 351 344 344
180 180 175 165 162 165 182 176 173 174 168 168 170 176 168 166 156 145 145 133 114 104 106 137 140 147 152 154 154 160 152 158 158 153 199 166 295 337 329 331 345 338 327
186 186 181 174 162 154 154 166 174 173 173 173 177 182 183 170 170 164 152 150 126 125 119 137 136 148 162 172 161 169 185 185 204 191 214 252 287 315 326 337 358 358 354
187 191 188 183 178 168 168 164 169 177 177 182 183 186 179 182 171 175 169 174 174 149 116 119 142 153 176 177 182 185 186 197 213 221 248 274 287 315 342 347 5 13 33
191 191 195 190 193 183 176 173 170 177 182 180 186 192 197 186 187 186 190 187 192 160 182 123 154 164 168 201 191 224 198 226 208 246 274 277 300 320 335 340 343 9 12
194 191 194 192 191 189 182 184 180 177 180 186 184 183 190 188 190 183 195 207 206 199 201 207 241 182 174 214 204 230 239 289 283 248 266 272 312 327 329 3 1 346 13
193 191 193 196 191 190 193 188 198 188 194 189 192 186 180 199 198 194 197 205 215 204 223 211 214 240 287 229 248 270 267 268 285 280 298 301 319 306 327 359 41 21 356
196 194 194 195 201 196 197 200 191 201 196 195 196 194 198 206 207 208 203 209 215 219 225 229 230 243 232 243 252 256 255 265 278 284 291 303 310 284 308 13 21 1 359
Height
1553 1553 1554 1555 1556 1559 1558 1559 1559 1559 1560 1561 1561 1562 1563 1563 1563 1564 1565 1565 1565 1567 1568 1569 1569 1570 1570 1570 1571 1572 1572 1572 1573 1574 1574 1574 1576 1575 1576 1577 1579 1579 1577
1554 1555 1555 1556 1558 1559 1559 1561 1561 1562 1562 1564 1565 1565 1565 1566 1566 1568 1567 1568 1568 1570 1570 1571 1572 1573 1573 1574 1574 1575 1575 1575 1575 1577 1577 1577 1576 1578 1579 1579 1579 1578 1579
1556 1556 1557 1558 1560 1561 1562 1562 1563 1564 1566 1566 1568 1568 1569 1569 1570 1570 1571 1571 1572 1573 1574 1574 1575 1575 1575 1577 1577 1576 1577 1578 1578 1579 1580 1582 1581 1581 1581 1581 1581 1581 1582
1559 1561 1561 1559 1561 1563 1564 1565 1566 1567 1568 1569 1570 1571 1572 1572 1573 1573 1574 1574 1574 1575 1577 1577 1576 1577 1578 1579 1580 1579 1580 1581 1581 1582 1587 1586 1586 1583 1583 1583 1583 1584 1584
1561 1563 1560 1562 1563 1565 1566 1567 1569 1570 1571 1572 1573 1574 1575 1575 1575 1576 1577 1577 1577 1578 1578 1579 1580 1581 1582 1582 1581 1581 1582 1583 1583 1587 1588 1589 1589 1586 1586 1586 1586 1586 1586
1562 1564 1562 1565 1566 1567 1569 1570 1571 1572 1574 1575 1576 1577 1578 1578 1579 1579 1579 1579 1580 1581 1582 1583 1584 1584 1584 1584 1584 1584 1584 1584 1587 1589 1590 1590 1590 1588 1587 1588 1588 1588 1588
1564 1566 1566 1566 1567 1568 1570 1572 1573 1575 1576 1578 1579 1580 1581 1581 1582 1582 1582 1583 1584 1584 1585 1585 1586 1585 1586 1586 1586 1586 1586 1586 1591 1592 1593 1591 1589 1590 1589 1589 1589 1590 1590
1566 1568 1568 1568 1569 1571 1573 1574 1577 1577 1578 1580 1582 1583 1584 1583 1584 1584 1585 1586 1587 1587 1588 1588 1588 1588 1588 1589 1588 1588 1588 1589 1593 1593 1594 1593 1591 1591 1591 1591 1591 1591 1591
1567 1569 1571 1572 1571 1573 1575 1577 1579 1579 1581 1582 1583 1584 1585 1586 1587 1587 1589 1589 1590 1590 1590 1591 1591 1592 1591 1591 1591 1590 1591 1591 1594 1595 1597 1596 1593 1593 1593 1594 1594 1593 1593
1568 1570 1571 1574 1576 1578 1578 1579 1581 1582 1583 1584 1585 1587 1587 1588 1589 1591 1592 1592 1593 1593 1593 1594 1594 1595 1594 1593 1593 1593 1594 1594 1597 1598 1599 1595 1594 1595 1596 1596 1596 1596 1595
1568 1570 1570 1575 1576 1575 1578 1581 1583 1583 1585 1586 1588 1589 1591 1594 1595 1596 1594 1594 1595 1596 1596 1597 1597 1597 1597 1596 1596 1595 1596 1601 1600 1601 1600 1597 1597 1598 1598 1598 1598 1598 1597
1569 1571 1572 1575 1575 1577 1580 1581 1584 1585 1587 1589 1590 1593 1595 1596 1597 1598 1596 1597 1598 1598 1599 1599 1599 1599 1599 1602 1599 1598 1602 1601 1601 1602 1600 1599 1600 1600 1600 1600 1600 1599 1599
1569 1571 1573 1572 1576 1577 1579 1583 1585 1587 1589 1592 1593 1596 1597 1599 1600 1601 1600 1601 1601 1601 1604 1603 1602 1604 1602 1604 1603 1604 1602 1603 1603 1604 1602 1602 1602 1602 1602 1602 1602 1601 1601
1569 1571 1573 1572 1574 1576 1582 1583 1586 1589 1593 1595 1596 1596 1598 1601 1602 1603 1603 1603 1604 1605 1604 1605 1606 1603 1604 1603 1605 1605 1605 1605 1606 1606 1605 1605 1605 1605 1605 1604 1604 1604 1603
1569 1571 1574 1574 1574 1577 1580 1585 1588 1591 1594 1596 1597 1597 1601 1603 1603 1604 1603 1605 1606 1606 1606 1606 1606 1605 1605 1606 1606 1606 1607 1607 1607 1608 1609 1608 1608 1608 1607 1606 1606 1605 1604
1569 1571 1574 1576 1575 1577 1580 1584 1587 1592 1594 1596 1598 1599 1600 1603 1603 1604 1605 1607 1607 1607 1607 1607 1607 1608 1608 1608 1607 1608 1609 1609 1608 1609 1611 1611 1610 1610 1609 1608 1607 1606 1605
1570 1572 1573 1576 1578 1579 1581 1585 1589 1592 1595 1597 1599 1599 1600 1602 1603 1604 1606 1608 1608 1607 1607 1608 1608 1609 1610 1610 1610 1610 1611 1611 1611 1610 1612 1613 1612 1612 1611 1610 1608 1606 1605
1570 1572 1573 1576 1578 1580 1583 1585 1589 1592 1595 1597 1599 1600 1601 1602 1603 1605 1607 1608 1608 1608 1609 1609 1610 1610 1611 1611 1612 1613 1613 1614 1613 1613 1614 1613 1613 1614 1612 1609 1608 1606 1605
1570 1572 1574 1576 1578 1581 1582 1586 1589 1590 1594 1597 1599 1601 1601 1602 1604 1606 1608 1608 1608 1609 1609 1610 1610 1611 1611 1612 1613 1614 1615 1615 1615 1616 1615 1614 1614 1613 1613 1609 1607 1606 1604
1570 1572 1573 1575 1576 1580 1581 1584 1589 1591 1594 1596 1599 1602 1601 1603 1604 1606 1608 1608 1609 1610 1610 1610 1610 1611 1612 1613 1613 1614 1615 1615 1615 1616 1615 1615 1614 1613 1613 1609 1607 1606 1603
1569 1572 1573 1575 1576 1580 1581 1585 1589 1592 1594 1597 1599 1600 1601 1603 1604 1606 1608 1608 1609 1610 1609 1609 1611 1611 1613 1613 1614 1614 1615 1615 1614 1615 1615 1615 1614 1613 1611 1609 1608 1605 1603
1567 1571 1573 1575 1577 1580 1583 1586 1589 1592 1594 1597 1598 1599 1602 1604 1605 1606 1606 1608 1608 1610 1610 1610 1610 1612 1613 1613 1613 1614 1613 1615 1614 1615 1615 1614 1613 1611 1611 1610 1608 1605 1604
1566 1569 1572 1574 1577 1580 1584 1585 1587 1590 1592 1595 1597 1599 1601 1602 1604 1605 1606 1607 1608 1609 1612 1611 1611 1611 1613 1613 1613 1613 1613 1611 1613 1613 1613 1614 1612 1612 1611 1609 1608 1606 1605
1564 1567 1571 1573 1575 1578 1581 1585 1588 1590 1593 1595 1596 1598 1600 1601 1602 1604 1605 1606 1607 1609 1609 1611 1611 1612 1612 1613 1613 1614 1613 1614 1612 1611 1612 1613 1612 1612 1609 1609 1609 1608 1606
1562 1565 1569 1571 1574 1577 1580 1585 1585 1589 1592 1594 1596 1597 1599 1600 1601 1603 1604 1605 1606 1608 1609 1609 1610 1610 1612 1613 1614 1614 1614 1615 1614 1614 1611 1611 1612 1611 1610 1608 1608 1609 1607
1559 1563 1567 1568 1571 1575 1579 1582 1584 1588 1591 1593 1594 1595 1598 1600 1600 1601 1603 1604 1605 1606 1607 1609 1609 1610 1610 1611 1612 1612 1614 1614 1614 1614 1612 1611 1611 1611 1610 1609 1609 1609 1607